Hourly Data Report for September 05, 2021

WINNIPEG THE FORKS
MANITOBA
Current Station Operator: ECCC - MSC

49°53'18.008" N
97°07'46.007" W
230.00 m
5023262
71579
XWN

Download Data

Hourly Data (September 2021)
Hourly Data Report for September 5, 2021
TIME
LST
Temp Definition
°C
Dew Point Definition
°C
Rel Hum Definition
%
Precip. Amount Definition
mm

Wind Dir Definition
10's deg

Wind Spd Definition
km/h
Visibility Definition
km
Stn Press Definition
kPa
Hmdx Definition


Wind Chill Definition


Weather Definition


00:00 14.5 9.8 73 0.0 24 3   98.42     LegendNANA
01:00 14.5 9.4 71 0.0 27 2   98.43     LegendNANA
02:00 14.2 9.6 74 0.0 27 4   98.42     LegendNANA
03:00 14.1 10.3 78 0.0 26 6   98.41     LegendNANA
04:00 14.0 10.4 79 0.0 23 4   98.38     LegendNANA
05:00 14.0 10.9 82 0.0 27 5   98.38     LegendNANA
06:00 13.6 10.9 84 0.0 28 4   98.41     LegendNANA
07:00 14.3 11.5 84 0.0 27 3   98.44     LegendNANA
08:00 14.7 11.9 83 0.0 27 4   98.47     LegendNANA
09:00 15.7 10.3 70 0.0 33 8   98.49     LegendNANA
10:00 16.3 7.1 54 0.0 32 12   98.50     LegendNANA
11:00 17.2 6.3 49 0.0 33 8   98.49     LegendNANA
12:00 17.8 5.5 44 0.0 34 9   98.49     LegendNANA
13:00 18.9 7.1 46 0.0 30 6   98.47     LegendNANA
14:00 18.7 7.2 47 0.0 32 7   98.45     LegendNANA
15:00 18.8 7.2 47 0.0 32 7   98.49     LegendNANA
16:00 18.7 8.2 51 0.0 31 5   98.47     LegendNANA
17:00 18.7 8.4 51 0.0 35 5   98.43     LegendNANA
18:00 18.3 7.8 50 0.0 32 5   98.41     LegendNANA
19:00 17.5 8.1 54 0.0 35 3   98.41     LegendNANA
20:00 15.3 9.3 67 0.0 7 2   98.42     LegendNANA
21:00 14.7 9.4 71 0.0 7 3   98.42     LegendNANA
22:00 14.4 9.2 71 0.0 9 4   98.38     LegendNANA
23:00 14.2 9.2 72 0.0 10 4   98.33     LegendNANA

Notes on Data Quality.

Legend

  • E = Estimated
  • M = Missing
  • NA = Not Available*
  • [empty] = Indicates an unobserved value
Date modified: